Aérodrome :
LOGIN :

S'inscrire | Disclaimer

   EN    FR    IT 

 










Légende :    VFR   VFR Marginal   IFR   IFR Intensif   IFR Très Intensif
Visi : 
Plafond : 
>= 8 km
>= 3000ft
5 à 8 km
1000 à 3000 ft
1500m à 5 km
500 à 1000 ft
800 à 1500m
200 à 500 ft
< 800m
< 200 ft
Symboles :   Orages  Brouillard  Fortes neiges  Fortes précipitations  Vent > 20 kt
SIGMETs :   Divers  Orages  Givrage  Turbulence  Onde Orograph.  Cendres Volcan.






- Altitude de l'aérodrome : 313 ft
- Code IATA : LEH


LFOH - Le Havre Octeville

DERNIER METAR :
  • 200900Z AUTO 08004KT 030V120 CAVOK 13/01 Q1017 NOSIG

METARs EXPIRÉS :
  • 200830Z AUTO 05004KT 020V090 CAVOK 12/03 Q1017 NOSIG
  • 200800Z AUTO VRB03KT CAVOK 11/03 Q1017 NOSIG
  • 200730Z AUTO 11002KT CAVOK 10/03 Q1017 NOSIG
  • 200700Z AUTO VRB02KT CAVOK 08/03 Q1017 NOSIG
  • 200630Z AUTO 10002KT CAVOK 07/02 Q1017 NOSIG

TAF TAF LFOH
Valide du 20 à 06h jusqu'au 21 à 06h UTC


200500Z 2006/2106 VRB02KT CAVOK
PROB30
TEMPO 2012/2017 SHRA BKN040TCU
ATIS : +33 2 35 54 64 93



MET'MAP, la Météo Aéronautique d'un coup d'oeil ! - Copyright ORBIFLY Décembre 2007 - Disclaimer

ORBIFLY MET'MAP TEAM :

Programmation & Développement : Alexandra Zaïnal
Sur une idée originale de : Baudouin d'Aumeries
Assistance à la programmation : Marc-Olivier Méhu
Soutien technique & logistique : Manuel Goepfert

Contact : metmap@orbifly.com




SOURCES & CREDITS :

   NOAA